{"data":{"norad_id":56174,"epoch":"2026-09-20T01:05:34.592064Z","epoch_age_seconds":61181,"freshness":"FRESH","line1":"1 56174U 23052A   26263.04553926 -.00000179  00000+0  00000+0 0  9994","line2":"2 56174   0.0093 151.4093 0002653  29.2806 103.6608  1.00271929 12775","mean_motion":1.00271929,"eccentricity":0.0002653,"inclination_deg":0.0093,"raan_deg":151.4093,"arg_perigee_deg":29.2806,"mean_anomaly_deg":103.6608,"bstar":0,"rev_number":1277,"period_min":1436.094841658,"perigee_km":35775.368300132,"apogee_km":35797.740885491,"semimajor_km":42164.691592812,"source":"CELESTRAK","updated_at":"2026-09-20T09:00:35.331827Z"}}